CW9335 Weather Reports


time (UTC)temp
C
wind
direction
speed
KPH
gust
KPH
rain 1hr
cm
rain 24hr
cm
rain mn
cm
humidity
%
barometer
mb
20260510104519 10 0.0 0.0 0.00 0.00 0.00 94 1015.2
20260510103559 10 0.0 0.0 0.00 0.00 0.00 94 1015.2
20260510102518 10 0.0 0.0 0.00 0.00 0.00 93 1015.0
20260510101538 9 0.0 0.0 0.00 0.00 0.00 94 1015.0
20260510100518 9 0.0 0.0 0.00 0.00 0.00 93 1014.8
20260510095538 9 0.0 0.0 0.00 0.00 0.00 93 1014.7
20260510094518 9 0.0 0.0 0.00 0.00 0.00 93 1014.6
20260510093538 9 0.0 0.0 0.00 0.00 0.00 93 1014.5
20260510092518 10 0.0 0.0 0.00 0.00 0.00 93 1014.5
20260510091538 10 0.0 0.0 0.00 0.00 0.00 93 1014.6
20260510090518 10 0.0 0.0 0.00 0.00 0.00 93 1014.6
20260510085539 10 0.0 0.0 0.00 0.00 0.00 92 1014.4
20260510084518 10 0.0 0.0 0.00 0.00 0.00 92 1014.4
20260510083518 10 0.0 0.0 0.00 0.00 0.00 92 1014.4
20260510082538 11 0.0 0.0 0.00 0.00 0.00 92 1014.4
20260510081518 11 0.0 0.0 0.00 0.00 0.00 92 1014.2
20260510080518 11 0.0 0.0 0.00 0.00 0.00 92 1014.0
20260510075518 11 0.0 0.0 0.00 0.00 0.00 92 1014.0
20260510074518 11 0.0 0.0 0.00 0.00 0.00 91 1013.9
20260510073559 11 0.0 0.0 0.00 0.00 0.00 91 1013.9
20260510072518 12 0.0 0.0 0.00 0.00 0.00 90 1014.0
20260510071518 12 0.0 0.0 0.00 0.00 0.00 90 1014.0
20260510070518 12 0.0 0.0 0.00 0.00 0.00 90 1013.9
20260510065538 12 0.0 0.0 0.00 0.00 0.00 89 1013.9
20260510064518 12 0.0 0.0 0.00 0.00 0.00 89 1013.9
20260510063537 12 0.0 0.0 0.00 0.00 0.00 88 1013.9
20260510062517 13 0.0 0.0 0.00 0.00 0.00 88 1013.9
20260510061518 13 0.0 0.0 0.00 0.00 0.00 88 1013.7
20260510060538 12 0.0 0.0 0.00 0.00 0.00 89 1013.8
20260510055517 12 0.0 0.0 0.00 0.00 0.00 89 1013.7
20260510054517 12 0.0 0.0 0.00 0.00 0.00 89 1013.6
20260510053538 12 0.0 0.0 0.00 0.00 0.00 88 1013.5
20260510052518 12 0.0 0.0 0.00 0.00 0.00 88 1013.6
20260510051518 12 0.0 0.0 0.00 0.00 0.00 88 1013.5
20260510050518 13 0.0 0.0 0.00 0.00 0.00 87 1013.5
20260510045517 13 0.0 0.0 0.00 0.00 0.00 87 1013.5
20260510044518 13 0.0 0.0 0.00 0.00 0.00 86 1013.6
20260510043538 13 0.0 0.0 0.00 0.00 0.00 86 1013.6
20260510042518 13 0.0 0.0 0.00 0.00 0.00 85 1013.6
20260510041538 13 0.0 0.0 0.00 0.00 0.00 84 1013.5
20260510040518 13 0.0 0.0 0.00 0.00 0.00 83 1013.4
20260510035518 14 0.0 0.0 0.00 0.00 0.00 82 1013.5
20260510034518 14 0.0 0.0 0.00 0.00 0.00 82 1013.5
20260510033518 14 0.0 0.0 0.00 0.00 0.00 82 1013.5
20260510032538 14 0.0 0.0 0.00 0.00 0.00 81 1013.3
20260510031517 15 0.0 0.0 0.00 0.00 0.00 79 1013.2
20260510030558 15 0.0 0.0 0.00 0.00 0.00 79 1013.2
20260510025518 15 0.0 0.0 0.00 0.00 0.00 78 1013.1
20260510024538 16 0.0 0.0 0.00 0.00 0.00 77 1013.0
20260510023518 16 0.0 0.0 0.00 0.00 0.00 76 1012.9
20260510022518 16 0.0 0.0 0.00 0.00 0.00 75 1012.5
20260510021518 16 0.0 0.0 0.00 0.00 0.00 74 1012.6
20260510020518 16 0.0 0.0 0.00 0.00 0.00 73 1012.5
20260510015518 16 0.0 0.0 0.00 0.00 0.00 73 1012.3
20260510014518 17 0.0 0.0 0.00 0.00 0.00 72 1012.1
20260510013518 17 0.0 0.0 0.00 0.00 0.00 72 1012.1
20260510012523 17 0.0 0.0 0.00 0.00 0.00 72 1011.8
20260510011518 17 0.0 0.0 0.00 0.00 0.00 70 1011.7
20260510010519 17 0.0 0.0 0.00 0.00 0.00 69 1011.6
20260510005518 17 0.0 0.0 0.00 0.00 0.00 68 1011.4
20260510004518 18 0.0 0.0 0.00 0.00 0.00 66 1011.4
20260510003518 18 0.0 0.0 0.00 0.00 0.00 65 1011.3
20260510002518 18 0.0 0.0 0.00 0.00 0.00 64 1011.1
20260510001518 19 0.0 0.0 0.00 0.00 0.00 62 1011.1
20260510000519 20 0.0 0.0 0.00 0.00 0.00 62 1011.0
20260509235538 20 0.0 0.0 0.00 0.00 0.00 62 1010.9
20260509234518 20 0.0 0.0 0.00 0.00 0.00 59 1010.8
20260509233518 21 0.0 0.0 0.00 0.00 0.00 58 1010.7
20260509232518 21 0.0 0.0 0.00 0.00 0.00 56 1010.9
20260509231518 21 0.0 0.0 0.00 0.00 0.00 55 1010.7
20260509230517 22 0.0 0.0 0.00 0.00 0.00 55 1010.8
20260509225518 22 0.0 0.0 0.00 0.00 0.00 52 1010.6
20260509224517 22 0.0 1.6 0.00 0.00 0.00 52 1010.6
20260509223517 22 45 1.6 3.2 0.00 0.00 0.00 52 1010.7
20260509222518 23 0.0 0.0 0.00 0.00 0.00 50 1010.7
20260509221518 22 0.0 1.6 0.00 0.00 0.00 52 1010.7
20260509220538 23 180 1.6 4.8 0.00 0.00 0.00 52 1010.7
20260509215518 23 0.0 1.6 0.00 0.00 0.00 50 1010.6
20260509214538 23 0.0 0.0 0.00 0.00 0.00 50 1010.6
20260509213518 23 225 1.6 1.6 0.00 0.00 0.00 48 1010.7
20260509212618 23 225 3.2 3.2 0.00 0.00 0.00 51 1010.6
20260509211517 23 248 3.2 4.8 0.00 0.00 0.00 48 1010.6
20260509210517 23 248 1.6 3.2 0.00 0.00 0.00 47 1010.6
20260509205518 23 203 1.6 3.2 0.00 0.00 0.00 47 1010.4
20260509204518 24 180 1.6 3.2 0.00 0.00 0.00 48 1010.4
20260509203517 23 0.0 1.6 0.00 0.00 0.00 52 1010.3
20260509202518 23 0.0 1.6 0.00 0.00 0.00 49 1010.3
20260509201537 23 0.0 1.6 0.00 0.00 0.00 48 1010.4
20260509200517 23 225 3.2 8.0 0.00 0.00 0.00 47 1010.4
20260509195517 23 180 3.2 4.8 0.00 0.00 0.00 48 1010.5
20260509194517 23 135 1.6 3.2 0.00 0.00 0.00 49 1010.8
20260509193517 23 0.0 1.6 0.00 0.00 0.00 50 1010.9
20260509192517 23 0.0 0.0 0.00 0.00 0.00 50 1010.9
20260509191518 23 113 3.2 6.4 0.00 0.00 0.00 48 1010.9
20260509190517 23 225 1.6 3.2 0.00 0.00 0.00 50 1011.0
20260509185517 23 225 1.6 3.2 0.00 0.00 0.00 50 1011.3
20260509184518 24 135 1.6 3.2 0.00 0.00 0.00 48 1011.6
20260509183517 23 0.0 0.0 0.00 0.00 0.00 49 1011.8
20260509182517 23 248 3.2 8.0 0.00 0.00 0.00 54 1012.0
20260509181538 23 0.0 1.6 0.00 0.00 0.00 52 1012.2
20260509180517 21 0.0 0.0 0.00 0.00 0.00 58 1012.3
20260509175537 22 248 3.2 6.4 0.00 0.00 0.00 55 1012.3
20260509174517 22 248 3.2 4.8 0.00 0.00 0.00 55 1012.2
20260509173517 22 248 1.6 3.2 0.00 0.00 0.00 56 1012.5
20260509172517 22 225 1.6 3.2 0.00 0.00 0.00 53 1012.7
20260509171517 22 248 3.2 4.8 0.00 0.00 0.00 55 1012.8
20260509170517 22 225 4.8 9.7 0.00 0.00 0.00 55 1012.7
20260509165517 20 158 1.6 3.2 0.00 0.00 0.00 65 1012.8
20260509164517 20 0.0 0.0 0.00 0.00 0.00 64 1012.8
20260509163516 20 180 1.6 3.2 0.00 0.00 0.00 63 1012.8
20260509162517 20 113 3.2 3.2 0.00 0.00 0.00 61 1012.9
20260509161517 20 203 1.6 3.2 0.00 0.00 0.00 61 1012.9
20260509160517 20 0.0 3.2 0.00 0.00 0.00 62 1013.1
20260509155537 21 158 1.6 3.2 0.00 0.00 0.00 59 1013.1
20260509154537 20 0.0 3.2 0.00 0.00 0.00 62 1013.4
20260509153516 19 248 4.8 6.4 0.00 0.00 0.00 62 1013.4
20260509152517 18 158 1.6 3.2 0.00 0.00 0.00 66 1013.4
20260509151516 17 135 1.6 1.6 0.00 0.00 0.00 68 1013.4
20260509150516 17 0.0 3.2 0.00 0.00 0.00 64 1013.7
20260509145516 18 225 1.6 3.2 0.00 0.00 0.00 65 1013.6
20260509144537 17 248 3.2 4.8 0.00 0.00 0.00 64 1013.6
20260509143516 16 0.0 0.0 0.00 0.00 0.00 66 1013.8
20260509142517 15 0.0 3.2 0.00 0.00 0.00 70 1013.9
20260509141536 15 0.0 1.6 0.00 0.00 0.00 72 1014.2
20260509140536 15 90 1.6 3.2 0.00 0.00 0.00 72 1014.2
20260509135516 14 0.0 0.0 0.00 0.00 0.00 74 1014.3
20260509134516 13 0.0 0.0 0.00 0.00 0.00 74 1014.2
20260509133516 13 0.0 0.0 0.00 0.00 0.00 73 1014.3
20260509132516 13 0.0 0.0 0.00 0.00 0.00 72 1014.4
20260509131516 13 0.0 0.0 0.00 0.00 0.00 73 1014.4
20260509130556 13 0.0 0.0 0.00 0.00 0.00 75 1014.4
20260509125516 13 0.0 0.0 0.00 0.00 0.00 74 1014.4
20260509124516 12 0.0 0.0 0.00 0.00 0.00 74 1014.4
20260509123516 12 0.0 1.6 0.00 0.00 0.00 75 1014.3
20260509122516 12 0.0 1.6 0.00 0.00 0.00 76 1014.4
20260509121537 11 0.0 0.0 0.00 0.00 0.00 77 1014.4
20260509120517 11 0.0 0.0 0.00 0.00 0.00 78 1014.3
20260509115516 11 0.0 0.0 0.00 0.00 0.00 80 1014.4
20260509114516 10 0.0 0.0 0.00 0.00 0.00 77 1014.4
20260509113556 10 0.0 0.0 0.00 0.00 0.00 79 1014.5
20260509112516 10 0.0 1.6 0.00 0.00 0.00 82 1014.4
20260509111516 9 0.0 0.0 0.00 0.00 0.00 84 1014.4
20260509110516 9 0.0 0.0 0.00 0.00 0.00 84 1014.3
20260509105516 8 0.0 1.6 0.00 0.00 0.00 84 1014.3